Regional Weather Roundup
Issued by NWS

Home | Current Version | Previous Version | Text Only | Print | Product List | Glossary Off
Versions: 1 2 3 4 5 6 7 8 9 10 11 12 13 14 15 16 17 18 19 20 21 22 23 24 25 26 27 28 29 30 31 32 33 34 35 36 37 38 39 40 41 42 43 44 45 46 47 48 49 50

000
ASUS43 KFSD 290402
RWRSD

WEATHER ROUNDUP FOR SOUTH DAKOTA
NATIONAL WEATHER SERVICE SIOUX FALLS SD
1100 PM CDT THU APR 28 2016

NOTE: "FAIR" INDICATES FEW OR NO CLOUDS BELOW 12,000 FEET WITH NO
SIGNIFICANT WEATHER AND/OR OBSTRUCTIONS TO VISIBILITY.


SDZ001>005-009-010-012>017-290500-
NORTHWEST AND NORTH CENTRAL SOUTH DAKOTA

CITY           SKY/WX    TMP DP  RH WIND       PRES   REMARKS
BUFFALO          N/A     38  34  85 W6        30.07S
FAITH            N/A     36  31  82 W6        30.13R
MOBRIDGE       CLOUDY    47  39  74 E6        30.11R
$$

SDZ012>016-024>037-041>051-057-063-072>074-290500-
SOUTHWEST AND SOUTH CENTRAL SOUTH DAKOTA

CITY           SKY/WX    TMP DP  RH WIND       PRES   REMARKS
RAPID CTY ARPT CLOUDY    37  34  89 NW3       30.14R
PIERRE         CLOUDY    43  38  82 N3        30.13R
CUSTER         FOG       31  29  92 CALM      30.09R VSB 1/2
ELLSWORTH AFB  CLOUDY    37  36  96 NW1       30.13S
PHILIP         CLOUDY    41  34  76 CALM      30.14S
PINE RIDGE     CLOUDY    37  34  89 N6        30.13R
WINNER         CLOUDY    43  38  82 NE3       30.12S
$$

SDZ004>011-016>023-039-040-290500-
NORTHEAST SOUTH DAKOTA

CITY           SKY/WX    TMP DP  RH WIND       PRES   REMARKS
ABERDEEN       CLOUDY    44  36  73 S5        30.15R
WATERTOWN      CLOUDY    40  36  86 CALM      30.13R
BROOKINGS      MOCLDY    38  36  92 E7        30.12R
SISSETON         N/A     43  37  79 S3        30.14R
$$

SDZ017-020-022-023-036>040-048>070-290500-
SOUTHEAST SOUTH DAKOTA

CITY           SKY/WX    TMP DP  RH WIND       PRES   REMARKS
SIOUX FALLS    CLOUDY    39  35  86 NE5       30.11S
HURON          CLOUDY    39  36  89 NE5       30.14S
MITCHELL       CLOUDY    40  36  86 NE9       30.13F
YANKTON        CLOUDY    41  37  87 N6        30.10S
$$

ABBREVIATIONS USED IN REMARKS
   TC - TEMPERATURE IN CELSIUS
  WCI - WIND CHILL INDEX
   HX - HEAT INDEX
  VSB - VISIBILITY





USA.gov is the U.S. government's official web portal to all federal, state and local government web resources and services.